sat.trackr.live / text

‹ back to catalog

STARLINK-30369

NORAD 57781 · 2023-134L

PAYLOAD ACTIVE UNKNOWN

§ Identity

Operator
Country
US
Launch date
2023-09-04
Launch site
AFETR
Launch vehicle
Mass (kg)
RCS (m²)

Purposes: comms

External: N2YO · Heavens-Above · Gunter

§ Orbital elements

Epoch: 2026-09-20T02:51:22.255776Z

Period
94.27 min
Inclination
43.0012°
Eccentricity
0.0000901
Mean motion
15.27572917 rev/d
Perigee alt
482.5 km
Apogee alt
483.7 km
Semi-major
6,861.2 km
B*
5.6453e-6
RAAN
176.3201°
Arg perigee
265.1700°
Mean anomaly
94.9049°
Rev number
16,924

§ Raw data

STARLINK-303691 57781U 23134L   26263.11900759 -.00000107  00000+0  56453-5 0  99982 57781  43.0012 176.3201 0000901 265.1700  94.9049 15.27572917169244

JSON: /api/v1/satellites/57781 · /tle

For live sub-satellite position, see the globe view (requires WebGL).

§ Visibility from observer

Set your observer location to see the next 7 days of passes ≥ 10°. The values pass through the URL so the page stays shareable.

No JS? Fill the form by hand. The geolocation button needs JavaScript.